Inquirer Daily News

Weather

Get conditions and forecasts for any City, State, ZIP code or Country:  
Trenton, NJ
on Thursday, February 7, 2013

Thursday
Previous Day Next Day
Daily Summary
 ActualAverageRecord
Temperature
Mean Temperature °F 33°F  
Max Temperature 34°F 41°F 57°F (1904)
Min Temperature 22°F 25°F 1°F (1993)
Degree Days
Heating Degree Days 37 32  
Month to date heating degree days 262 230  
Since 1 July heating degree days 2970 3176  
Cooling Degree Days 0 0  
Month to date cooling degree days 0 0  
Year to date cooling degree days 0 0  
Moisture
Dew Point 14°F   
Average Humidity 54    
Maximum Humidity 65    
Minimum Humidity 43    
Precipitation
Precipitation 0.00 in 0.06 in 1.17 in (1941)
Month to date precipitation 0.04 0.48  
Year to date precipitation 2.86 3.64  
Wind
Wind Speed 5 mph   
Max Wind Speed 14 mph   
Max Gust Speed 17 mph   
Visibility 10 miles   
Events     

Key: T is trace of precipitation, MM is missing value
Source: NWS Daily Summary
Time(EST)TemperatureDew PointHumidity Pressure Visibility Wind DirectionWind SpeedGust SpeedPrecipitationEvents Conditions
12:53 AM 25.0°F 12.0°F 58% 30.36 in 10.0 miles Calm Calm - N/A   Clear
1:53 AM 24.1°F 12.0°F 60% 30.36 in 10.0 miles NNE 3.5 mph - N/A   Clear
2:53 AM 25.0°F 10.9°F 55% 30.38 in 10.0 miles Calm Calm - N/A   Clear
3:53 AM 23.0°F 12.0°F 63% 30.40 in 10.0 miles Calm Calm - N/A   Clear
4:53 AM 23.0°F 10.9°F 60% 30.40 in 10.0 miles North 4.6 mph - N/A   Clear
5:53 AM 23.0°F 10.9°F 60% 30.41 in 10.0 miles Calm Calm - N/A   Clear
6:53 AM 24.1°F 10.9°F 57% 30.44 in 10.0 miles NNW 3.5 mph - N/A   Clear
7:53 AM 24.1°F 12.0°F 60% 30.48 in 10.0 miles North 4.6 mph - N/A   Clear
8:53 AM 26.1°F 12.0°F 55% 30.47 in 10.0 miles NE 5.8 mph - N/A   Clear
9:53 AM 28.0°F 10.9°F 49% 30.47 in 10.0 miles East 3.5 mph - N/A   Clear
10:53 AM 30.0°F 10.9°F 45% 30.48 in 10.0 miles ESE 3.5 mph - N/A   Clear
11:53 AM 32.0°F 12.9°F 45% 30.46 in 10.0 miles South 6.9 mph - N/A   Clear
12:53 PM 33.1°F 14.0°F 46% 30.43 in 10.0 miles SE 5.8 mph - N/A   Clear
1:53 PM 34.0°F 15.1°F 46% 30.40 in 10.0 miles SSE 4.6 mph - N/A   Clear
2:53 PM 34.0°F 16.0°F 48% 30.39 in 10.0 miles SE 8.1 mph - N/A   Clear
3:53 PM 33.1°F 19.0°F 56% 30.38 in 10.0 miles ESE 11.5 mph - N/A   Clear
4:53 PM 30.9°F 17.1°F 57% 30.38 in 10.0 miles ESE 10.4 mph - N/A   Clear
5:53 PM 30.0°F 15.1°F 54% 30.38 in 10.0 miles ESE 6.9 mph - N/A   Clear
6:53 PM 30.0°F 15.1°F 54% 30.39 in 10.0 miles East 4.6 mph - N/A   Clear
7:53 PM 28.0°F 16.0°F 61% 30.37 in 10.0 miles ENE 5.8 mph - N/A   Mostly Cloudy
8:53 PM 30.0°F 17.1°F 59% 30.36 in 10.0 miles East 3.5 mph - N/A   Overcast
9:53 PM 32.0°F 19.9°F 61% 30.34 in 10.0 miles East 5.8 mph - N/A   Overcast
10:53 PM 32.0°F 19.9°F 61% 30.30 in 10.0 miles NE 5.8 mph - N/A   Overcast
11:53 PM 32.0°F 23.0°F 69% 30.27 in 10.0 miles ENE 5.8 mph - N/A   Overcast
Astronomy
Sunrise:07:01 AM (EST) Moon Rise:04:39 AM (EST)2/7
Sunset:05:25 PM (EST) Moon Set:02:47 PM (EST)2/7
Moon Phase
Feb. 07 Feb. 10 Feb. 17 Feb. 25 Mar. 04

Copyright © 2014 The Weather Underground, Inc.